Terminal Aerodrome Forecast
Issued by NWS Paducah, KY

Home | Current Version | Previous Version | Text Only | Print | Product List | Glossary On
Versions: 1 2 3 4 5 6 7 8 9 10 11 12 13 14 15
000
FTUS43 KPAH 201453 AAB
TAFPAH
TAF AMD
KPAH 201453Z 2015/2112 23008KT P6SM VCSH BKN090
     FM202300 19007KT P6SM VCTS SCT040CB BKN090
     FM210400 20005KT P6SM OVC070
     FM211000 28005KT P6SM OVC025=

USA.gov is the U.S. government's official web portal to all federal, state and local government web resources and services.